Location: Gelliwen
(51.8839°N, 4.5072°W)
Time: 18:25:22
(UTC+00:00)

Daily predictions for brighter satellites

Satellite Brightness Start Highest point End
(mag) Time Altitude Azimuth Time Altitude Azimuth Time Altitude Azimuth
Cosmos 1818 4.1 17:24:17 10° WSW 17:29:39 59° NW 17:35:05 10° NE
Cosmos 1606 Rocket 3.9 17:26:14 10° SSE 17:30:22 42° E 17:34:33 10° NNE
Cosmos 2058 4.4 17:27:47 10° NNE 17:30:34 17° ENE 17:33:21 10° ESE
Cosmos 1697 Rocket 4.4 17:28:40 10° ESE 17:30:49 12° E 17:32:59 10° ENE
CZ-4 R/B 2.7 17:28:39 10° ESE 17:31:20 18° ENE 17:34:01 10° NNE
Cosmos 1825 4.2 17:30:42 10° NE 17:31:47 11° ENE 17:32:53 10° ENE
SMAP 3.1 17:27:39 10° SSE 17:32:19 85° ENE 17:37:00 10° NNW
ERBS 3.3 17:30:51 10° WNW 17:33:58 35° N 17:37:07 10° ENE
Cosmos 1356 Rocket 4.0 17:31:41 10° SSW 17:35:56 65° WNW 17:40:15 10° N
Cosmos 1703 4.3 17:32:57 10° NNW 17:36:49 52° W 17:40:39 10° S
FALCON 9 DEB 3.2 17:33:58 10° W 17:37:24 71° N 17:40:49 10° E
ERS-2 2.6 17:34:13 10° NNE 17:37:41 39° E 17:41:07 10° S
Cosmos 1110 Rocket 4.1 17:33:15 10° S 17:38:25 62° ESE 17:43:34 10° NNE
SL-4 R/B 1.6 17:35:27 10° W 17:38:58 88° S 17:42:41 10° E
CZ-2D R/B 4.2 17:36:05 10° ESE 17:39:15 26° ENE 17:42:27 10° N
NOSS 2-2 (C) 4.5 17:34:31 10° NW 17:39:45 90° NE 17:47:05 10° SE
ADEOS Rocket 3.3 17:33:23 10° NNE 17:39:47 89° ESE 17:46:53 10° SSW
Cosmos 1346 Rocket 4.0 17:37:13 10° NNE 17:40:23 22° ENE 17:43:31 10° ESE
NOAA 11 4.2 17:37:14 10° SSE 17:42:37 65° ENE 17:48:01 10° N
FALCON 9 DEB 4.2 17:39:54 10° SSW 17:42:43 28° SSE 17:45:25 11° E
Okean-O 3.5 17:40:07 10° ESE 17:43:55 29° ENE 17:47:46 10° N
Cosmos 1340 3.1 17:40:33 10° N 17:44:08 39° ENE 17:47:41 10° SE
USA 281 3.5 17:38:45 10° SSE 17:45:18 74° WSW 17:51:55 10° NNW
Meteor 2-16 Rocket 4.4 17:39:30 10° N 17:45:36 68° ENE 17:51:40 10° SSE
Cosmos 1953 3.9 17:42:29 10° SW 17:46:11 37° WNW 17:49:55 10° N
Cosmos 1486 Rocket 4.3 17:41:16 10° NNW 17:46:29 49° ENE 17:51:38 10° SE
Envisat 4.0 17:42:12 10° S 17:47:09 53° W 17:52:09 10° NNW
AQUARIUS 4.4 17:45:00 10° S 17:49:28 76° WSW 17:54:01 10° NNW
USA 305 2.9 17:47:06 10° WNW 17:51:26 86° NNE 17:55:44 10° ESE
Cosmos 2297 Rocket 2.2 17:45:44 10° NNW 17:51:27 75° ENE 17:57:07 10° SE
Cosmos 2369 Rocket 3.9 17:46:54 10° WSW 17:51:53 30° NW 17:56:54 10° NNE
Cosmos 1315 Rocket 4.5 17:49:55 10° ESE 17:51:58 14° E 17:54:02 10° NE
Cosmos 1689 Rocket 3.4 17:50:00 10° NE 17:52:10 19° E 17:54:21 10° SE
FALCON 9 DEB 3.9 17:50:19 10° SW 17:53:15 33° SSE 17:55:34 14° E
In-Cosmos 22 Rocket 4.2 17:48:34 10° N 17:53:49 53° ENE 17:59:08 10° SSE
CZ-4B R/B 1.3 17:51:56 10° NNE 17:55:08 54° E 17:58:13 10° S
CORIOLIS 4.4 17:50:09 10° S 17:55:30 75° WSW 18:00:54 10° NNW
Cosmos 1953 Rocket 3.6 17:53:23 10° N 17:57:49 88° ENE 18:02:17 10° S
USA 306 2.9 17:53:34 10° WNW 17:57:54 90° ENE 18:01:57 11° ESE
Aureole 3 3.2 17:58:27 10° SSE 18:01:15 33° E 18:03:59 10° NNE
Cosmos 1244 Rocket 4.4 17:55:03 10° N 18:01:16 73° ENE 18:07:30 10° SSE
Cosmos 2058 Rocket 3.3 18:01:42 10° SSE 18:06:02 50° E 18:10:25 10° NNE
FengYun 1-2 T 4.5 18:02:00 10° SSE 18:07:40 78° WSW 18:13:20 10° NNW
Cosmos 1354 Rocket 4.5 18:03:40 10° NNW 18:08:38 40° NE 18:13:36 10° SE
CZ-2C R/B 3.6 18:04:47 10° SE 18:10:13 45° ENE 18:15:29 10° N
CZ-4C R/B 3.6 18:06:02 10° NW 18:11:48 34° NNE 18:17:00 16° ENE
Cosmos 1455 3.3 18:12:35 10° SE 18:15:35 22° E 18:17:16 17° NE
Cosmos 1076 Rocket 4.0 18:16:03 10° N 18:20:00 35° ENE 18:23:55 10° SE
Meteor 2-10 Rocket 4.0 18:16:23 10° SSE 18:21:11 37° E 18:25:52 10° NNE
Cosmos 1943 Rocket 4.4 18:18:37 10° WNW 18:22:12 17° NNW 18:25:48 10° NNE
Cosmos 2219 3.7 18:17:40 10° NW 18:23:23 67° WSW 18:29:05 10° SSE
H-2A R/B 3.7 18:21:23 10° N 18:25:09 33° WNW 18:28:50 10° SW
COSMO-SKYMED 1 2.5 18:21:03 10° NNE 18:25:23 61° ESE 18:29:41 10° S
SL-08 ROCKET BODY 4.4 18:24:40 10° N 18:30:48 73° ENE 18:36:58 10° SSE
Cosmos 44 3.2 18:26:47 10° SW 18:31:21 83° NW 18:35:30 14° NE
Ariane Rocket 4.2 18:30:46 21° ENE 18:31:24 22° NE 18:35:14 10° N
Cosmos 2082 3.7 18:25:39 10° NNW 18:31:25 73° ENE 18:37:09 10° SE
ATLAS 5 CENTAUR R/B 3.5 18:28:54 10° WNW 18:32:39 24° N 18:36:16 12° NE
H-2A R/B 2.3 18:31:29 10° SE 18:36:43 51° ENE 18:42:00 10° N
SJ-11-01 4.4 18:34:43 10° SE 18:39:13 50° ENE 18:43:45 10° N
Cosmos 1939 Rocket 3.4 18:35:57 10° S 18:39:50 58° W 18:43:43 10° NNW
ARGOS 3.5 18:36:01 14° SE 18:40:18 43° ENE 18:45:26 10° N
USA 307 3.2 18:36:57 10° WNW 18:41:12 62° SSW 18:43:36 24° SE
YAOGAN 1 2.4 18:37:33 10° SSE 18:41:52 74° ENE 18:46:12 10° N
S3M 4.0 18:36:16 10° S 18:42:14 57° E 18:48:17 10° NNE
Cosmos 1408 2.4 18:39:25 10° N 18:43:05 74° E 18:46:45 10° SSE
NOSS 3-4 (A) 3.9 18:37:31 10° NW 18:44:10 59° NE 18:48:36 25° ESE
NOSS 3-4 (C) 3.9 18:37:37 10° NW 18:44:16 58° NE 18:48:40 25° ESE
Cosmos 1656 3.6 18:39:00 10° SSW 18:44:33 72° ESE 18:50:13 10° NNE
Okean O Rocket 4.3 18:41:43 10° SW 18:45:06 22° W 18:48:29 10° NW
GEOS 3 Rocket 3.6 18:41:32 21° ESE 18:45:11 73° NE 18:50:37 10° NW
SeaSat 1 2.7 18:43:27 28° ESE 18:45:39 47° NE 18:50:23 10° NNW
USA 308 3.3 18:41:52 10° WNW 18:46:06 59° SSW 18:48:20 26° SE
Cosmos 1844 Rocket 4.4 18:43:41 10° NNW 18:47:15 17° NNE 18:48:29 16° NE
Cosmos 1812 Rocket 3.9 18:44:27 10° SSE 18:48:34 41° E 18:52:41 10° NNE
Cosmos 2369 4.1 18:43:30 10° S 18:48:46 40° ESE 18:51:18 26° ENE
Meteor 2-8 Rocket 4.5 18:43:09 10° SSW 18:49:17 83° W 18:55:29 10° N
Cosmos 1892 3.1 18:45:46 10° NNW 18:49:38 64° W 18:53:28 10° S
Helios 1A Rocket 3.4 18:48:18 10° S 18:52:22 62° WSW 18:56:28 10° NNW
Cosmos 1417 Rocket 4.4 18:46:36 10° S 18:52:52 81° E 18:59:15 10° NNE
Cosmos 1400 Rocket 3.6 18:51:26 10° SSW 18:55:28 55° WNW 18:59:29 10° N
Cosmos 2227 Rocket 3.1 18:50:16 10° NW 18:55:42 50° WSW 19:01:08 10° S
NOSS 3-3 (A) 4.2 18:50:32 10° SSW 18:56:08 48° ESE 18:59:03 29° ENE
NOSS 3-3 (C) 4.2 18:50:40 10° SSW 18:56:16 47° ESE 18:59:06 29° ENE
MOS 1 Rocket 3.5 18:52:33 10° NNE 18:57:05 47° E 19:01:51 10° S
USA 215 3.4 18:54:35 29° E 18:58:04 64° NNE 19:04:32 10° WNW
Cosmos 2263 Rocket 2.6 18:54:22 10° NNW 18:59:48 42° NE 19:01:09 36° E
CSL-04 Rocket 3.6 18:54:26 10° SSE 18:59:59 76° ENE 19:05:29 10° NNW
HJ-1C 3.7 19:02:02 52° NNE 19:02:02 52° NNE 19:04:48 10° N
FALCON 9 DEB 2.9 18:58:54 10° WSW 19:01:58 75° SSW 19:01:58 75° SSW
Cosmos 968 Rocket 4.4 18:58:12 10° NNW 19:03:14 49° WSW 19:08:12 10° S
FALCON 9 DEB 3.0 19:01:56 10° WSW 19:04:51 70° SW 19:04:51 70° SW
Cosmos 2151 3.3 19:01:28 10° N 19:05:01 45° NE 19:05:01 45° NE
CZ-4 R/B 2.0 19:02:14 10° S 19:06:02 54° W 19:09:51 10° NNW
Aureole 3 Rocket 4.2 19:02:01 10° SSW 19:06:15 54° WNW 19:12:12 10° N
ATLAS 2AS CENTAUR R/B 2.9 18:58:43 10° NW 19:06:20 62° NE 19:09:28 35° ESE
BREEZE-M R/B 3.9 19:03:19 10° W 19:07:23 63° S 19:10:34 32° ESE
Cosmos 2058 3.4 19:03:50 10° NNW 19:07:53 59° W 19:11:55 10° S
Cosmos 1825 2.0 19:04:07 10° N 19:07:56 89° W 19:09:13 40° S
PSLV R/B 4.4 19:04:39 10° N 19:08:48 63° WNW 19:12:54 10° SSW
Lacrosse 5 2.3 19:05:16 10° WNW 19:10:14 51° N 19:11:26 42° NE
ERBS 3.3 19:07:34 10° WNW 19:10:19 36° N 19:10:19 36° N
Meteor 2-15 Rocket 4.3 19:04:46 10° S 19:10:54 80° E 19:17:05 10° NNE
Cosmos 1553 Rocket 4.3 19:04:54 10° SSW 19:11:14 71° WNW 19:17:29 10° N
SKYMED 2 4.5 19:09:14 10° N 19:13:27 49° WNW 19:17:38 10° SW
Cosmos 1697 Rocket 2.6 19:08:08 10° SSW 19:13:42 67° ESE 19:16:32 30° NE
Cosmos 1777 Rocket 4.0 19:08:57 10° NNW 19:14:06 55° ENE 19:14:48 51° E
FALCON 9 DEB 3.5 19:11:01 10° WNW 19:14:09 61° SW 19:14:09 61° SW
Cosmos 1346 Rocket 4.0 19:13:08 10° NNW 19:16:56 43° W 19:20:43 10° SSW
Meteor 2-1 Rocket 4.1 19:12:50 10° S 19:18:22 89° W 19:23:57 10° NNE
SL-4 R/B 2.1 19:14:55 10° W 19:18:22 57° SSW 19:18:22 57° SSW
FALCON 9 DEB 3.8 19:15:21 10° WSW 19:17:50 49° WSW 19:17:50 49° WSW
Cosmos 44 Rocket 4.2 19:14:13 10° S 19:17:10 32° SSE 19:17:10 32° SSE
Okean-O 3.9 19:16:06 10° SSW 19:20:17 40° W 19:24:30 10° NNW
Cosmos 220 Rocket 4.0 19:16:00 10° SSW 19:20:23 86° WNW 19:21:50 43° NNE
Timation 1 Rocket 4.4 19:15:16 10° NW 19:21:18 78° WSW 19:24:54 26° SSE
Cosmos 1689 Rocket 4.3 19:21:17 12° NNW 19:23:21 25° WNW 19:25:47 10° SW
Cosmos 1315 Rocket 3.1 19:24:01 10° SSW 19:27:58 67° WNW 19:29:52 29° N
USA 305 4.2 19:27:18 10° WNW 19:31:11 33° SW 19:31:54 31° SSW
SL-08 RB Rocket 3.8 19:32:29 64° NNE 19:32:29 64° NNE 19:36:24 10° NNW
Cosmos 1980 Rocket 2.7 19:31:24 10° S 19:35:17 42° SSE 19:35:17 42° SSE
USA 306 4.3 19:33:50 10° W 19:37:37 31° SW 19:38:07 30° SSW
BREEZE-M TANK 4.1 19:34:41 10° W 19:39:13 27° SSW 19:39:31 26° SSW
MetOp-A 4.2 19:42:33 59° NE 19:42:33 59° NE 19:47:15 10° N
Cosmos 1455 3.7 19:47:30 10° SW 19:51:01 35° WNW 19:52:21 27° NNW
Cosmos 2227 4.0 19:45:23 10° NNW 19:51:04 86° ENE 19:51:06 86° ENE
IRS-1A Rocket 4.1 19:53:35 82° NE 19:53:35 82° NE 19:59:00 10° NNW
Cosmos 2360 4.2 19:51:11 10° SSW 19:56:56 82° WNW 19:57:37 69° N
MOS 1 4.2 19:59:05 76° NNE 19:59:05 76° NNE 20:04:23 10° NNW
SJ 16-02 3.4 19:54:30 10° NNW 19:55:54 19° N 19:55:54 19° N
Cosmos 2184 Rocket 4.1 19:52:37 10° N 19:58:07 60° NE 19:58:07 60° NE
COSMOS 2455 4.1 19:54:15 10° NNW 19:58:59 28° NNE 19:58:59 28° NNE
CZ-4C R/B 2.8 19:54:43 10° NW 20:01:31 67° NE 20:02:11 64° ENE
Cosmos 2278 4.3 20:02:50 10° SSW 20:06:50 48° SSW 20:06:50 48° SSW
Geosat 4.5 20:10:02 56° WSW 20:10:02 56° WSW 20:14:11 10° SW
Meteor 2-3 Rocket 3.8 20:03:49 10° NNW 20:09:26 75° W 20:09:26 75° W
Ariane Rocket 3.5 20:10:59 54° NW 20:10:59 54° NW 20:15:01 10° NNW
Meteor 2-17 Rocket 4.4 20:05:42 10° NNW 20:11:46 79° W 20:11:47 79° W
H-2A R/B 3.8 20:11:36 10° SSW 20:16:22 31° W 20:21:11 10° NNW
Cosmos 2074 Rocket 4.1 20:11:40 10° N 20:16:54 65° N 20:16:54 65° N
ATLAS 5 CENTAUR R/B 3.7 20:14:36 10° NW 20:17:48 25° N 20:17:48 25° N
ARGOS 4.5 20:17:32 20° SSW 20:20:40 36° W 20:25:41 10° NNW
Resurs 01 Rocket 4.3 20:25:37 12° N 20:25:37 12° N 20:25:56 10° N
Cosmos 2278 Rocket 4.3 20:18:47 10° NNW 20:21:08 16° N 20:21:08 16° N
SeaSat 1 3.7 20:23:16 36° WSW 20:23:17 36° WSW 20:27:51 10° NW
Cosmos 1844 Rocket 4.1 20:27:05 10° NNW 20:30:08 30° N 20:30:08 30° N
NOSS 3-4 (A) 4.4 20:28:30 10° NW 20:35:11 51° SW 20:36:04 48° SW
NOSS 3-4 (C) 4.3 20:28:36 10° NW 20:35:17 51° SW 20:36:08 49° SW
USA 215 3.5 20:41:56 65° W 20:41:56 65° W 20:47:37 10° WNW
Cosmos 2263 Rocket 3.3 20:38:24 10° NW 20:42:52 41° W 20:42:52 41° W
Lacrosse 5 3.8 20:48:25 10° WNW 20:50:37 26° WNW 20:50:37 26° WNW
ATLAS 2AS CENTAUR R/B 3.5 20:50:07 10° NW 20:56:55 46° WSW 20:56:55 46° WSW
Cosmos 1697 Rocket 4.3 20:53:11 10° WSW 20:58:08 31° NW 20:58:19 31° NW
CZ-4C R/B 4.2 21:43:21 10° NW 21:47:23 33° WNW 21:47:23 33° WNW
